EHI
0 0 0 0 0 0 0 0 0 1 3 6 11 19 26 30 32 33 34 40 50 60 65 66 66 67 66 61 55 54 58 59 56 52 46 40 35 33 31 28 27 27 26 25
0 0 0 0 0 0 0 0 0 2 4 5 9 20 28 32 35 36 37 42 51 60 65 67 68 69 67 62 58 56 57 56 53 49 44 39 36 34 32 30 29 28 26 24
0 0 0 0 0 0 0 1 1 3 4 5 11 23 33 38 41 43 44 48 56 63 67 68 70 70 68 64 60 58 56 53 49 46 43 39 37 36 34 32 31 30 27 25
0 0 0 0 0 0 1 2 3 4 6 8 14 23 33 39 45 48 51 54 59 66 68 68 70 71 68 64 61 57 53 50 49 47 45 43 41 39 36 33 31 31 29 28
0 0 0 0 0 1 1 2 4 6 8 11 14 18 25 34 42 48 55 58 59 63 67 67 68 69 67 64 62 58 53 51 52 51 50 47 44 41 38 35 32 31 30 30
0 0 0 0 0 1 2 2 4 7 10 14 15 17 22 31 39 48 57 60 59 60 63 65 66 66 65 64 62 61 58 56 56 55 52 49 45 42 39 36 33 30 29 29
0 0 0 1 2 4 8 8 8 11 14 18 20 21 27 35 42 51 58 60 59 59 62 65 67 65 63 62 63 64 62 60 58 55 50 47 44 42 39 36 33 31 29 28
0 0 2 5 7 12 18 18 15 17 20 23 24 26 30 36 43 51 55 57 58 59 62 66 66 65 63 62 64 65 63 60 57 54 48 45 43 41 38 36 34 31 28 25
1 2 5 9 13 17 20 17 15 19 24 25 26 28 30 33 40 46 50 54 56 57 61 64 64 63 62 64 67 65 61 57 54 52 49 45 42 39 36 34 32 29 25 22
3 4 6 10 13 14 12 11 12 17 23 26 28 32 35 37 40 43 45 47 49 53 58 60 61 60 61 63 65 64 59 53 49 48 46 43 39 35 33 30 28 26 22 19
7 7 8 9 10 7 7 10 13 16 22 27 31 38 41 41 41 41 40 39 41 46 52 55 57 59 59 60 60 60 55 47 44 42 40 36 31 27 25 22 20 20 18 17
10 10 10 10 8 6 7 12 16 19 24 30 35 40 41 40 39 36 35 36 37 41 46 50 53 54 54 53 53 52 49 43 39 36 33 30 25 20 15 11 9 8 9 10
12 11 12 11 10 10 12 15 19 23 27 31 35 37 37 37 34 32 31 33 34 38 43 47 48 46 44 43 44 46 44 41 37 33 30 27 24 18 13 7 3 2 2 3
14 13 15 16 16 17 18 19 22 26 29 32 32 33 33 32 30 28 28 29 30 35 40 42 41 39 37 36 38 40 39 37 34 31 28 26 23 18 13 9 6 3 1 1
14 16 19 21 23 24 23 21 23 25 27 29 29 29 29 28 27 26 26 26 28 32 37 38 36 35 34 33 34 35 34 32 30 28 26 23 19 14 11 8 7 6 3 1
14 16 18 20 23 25 26 24 22 22 23 25 24 24 26 25 25 26 26 27 28 30 33 35 33 32 32 33 33 33 30 26 24 22 20 16 12 10 8 7 7 6 3 1
16 16 15 16 18 22 23 23 20 19 21 22 22 23 25 24 24 25 26 26 26 25 26 28 29 29 30 31 31 31 26 21 17 15 13 10 8 7 6 6 6 6 3 2
15 15 14 15 17 19 19 18 18 20 22 24 24 25 26 25 23 22 23 23 22 20 19 21 24 27 26 25 24 24 21 16 12 11 8 7 6 5 5 5 6 5 4 3
10 12 14 15 17 18 17 16 18 21 24 25 25 25 25 25 23 21 19 18 18 17 18 18 20 22 22 17 15 16 14 11 9 8 6 6 6 5 5 5 5 4 3 3
8 10 13 14 16 17 18 18 18 21 24 25 25 25 24 22 20 18 16 14 15 17 18 16 15 17 16 12 10 11 10 7 5 5 4 4 5 5 5 5 4 3 3 3
10 10 11 12 13 16 18 18 18 19 22 23 22 21 20 16 14 13 12 11 12 14 14 12 11 12 12 9 8 9 8 5 4 3 2 3 3 3 3 3 3 3 3 3
11 10 10 10 12 14 16 17 17 18 19 18 17 16 15 12 10 10 9 8 7 7 7 8 8 7 7 6 6 7 7 5 3 1 2 2 2 2 2 2 3 3 3 3
10 10 11 12 12 13 14 15 16 16 15 14 14 15 13 11 9 7 5 4 3 2 3 5 5 4 4 4 5 5 5 4 2 0 1 2 2 2 2 3 3 3 3 3
10 11 12 12 11 11 12 14 14 13 13 14 15 16 14 11 8 4 2 1 1 0 1 2 2 2 3 5 6 5 4 3 1 0 0 1 1 2 2 2 2 2 3 3
11 11 11 11 10 9 10 10 10 10 12 13 13 13 11 9 7 4 1 0 0 0 0 1 1 1 3 5 5 4 3 1 0 0 0 0 0 1 1 1 1 1 1 2
10 9 9 9 8 7 7 7 8 8 9 10 10 9 8 7 6 4 2 0 0 0 0 0 0 1 2 3 2 1 1 0 0 0 0 0 0 0 0 0 0 0 1 2
9 9 9 8 6 5 5 6 7 7 7 8 8 7 6 6 6 5 2 0 0 0 0 0 0 0 1 1 0 0 0 0 0 0 0 0 0 0 0 0 0 0 0 1
Wind_Speed
14 13 11 11 13 14 14 13 11 9 9 5 4 5 5 5 5 5 7 7 8 8 7 8 8 8 8 8 8 8 7 7 6 5 4 4 4 4 4 3 4 3 3 3
14 15 14 14 14 14 15 14 14 11 9 5 3 4 5 4 4 4 5 5 7 8 8 7 8 9 8 8 8 8 8 7 6 6 5 5 4 4 4 4 4 4 4 4
12 13 13 15 14 14 13 13 12 11 8 4 2 3 5 4 2 2 3 4 5 7 8 7 7 7 8 8 8 8 7 7 7 7 6 5 5 5 5 5 4 4 4 5
11 12 16 11 10 11 12 11 9 8 5 2 2 3 4 4 3 2 1 2 4 5 7 8 7 8 7 8 9 8 8 8 7 7 6 5 5 5 5 5 4 4 4 5
10 13 15 11 10 10 10 8 6 5 3 2 2 3 4 3 2 1 1 1 2 4 6 7 8 8 8 8 9 9 9 8 8 8 7 6 5 5 5 5 5 5 5 5
11 13 13 9 8 7 8 8 3 3 2 2 2 4 3 3 2 2 2 1 1 2 5 6 7 8 8 8 8 9 9 8 8 7 7 7 6 5 5 5 5 5 5 5
13 14 10 7 5 6 9 3 1 1 1 1 1 3 3 4 4 3 2 2 1 2 4 5 7 7 7 7 7 7 7 8 7 7 6 6 5 4 5 5 5 5 6 5
12 15 10 3 5 3 1 3 3 2 1 1 2 3 3 3 4 3 2 2 1 2 3 4 6 7 6 6 6 6 7 8 8 7 7 7 6 5 5 6 6 6 6 6
7 6 0 3 2 3 3 2 3 2 2 1 0 1 1 2 2 1 2 1 0 1 3 4 5 6 7 5 6 6 7 7 7 7 6 6 7 6 6 5 5 6 6 6
6 5 3 2 1 1 1 1 2 2 2 3 2 1 1 2 1 1 1 1 0 1 2 3 4 5 6 6 6 7 7 7 7 7 6 6 4 5 5 5 5 5 5 5
7 6 5 4 3 3 3 3 3 2 3 3 2 1 1 2 2 1 1 1 1 1 2 2 4 4 5 6 6 7 7 7 7 7 6 5 4 2 3 2 1 3 3 4
6 3 4 3 2 3 3 4 4 3 3 4 3 3 2 2 2 1 2 1 1 2 2 2 3 4 4 5 6 7 7 7 6 6 6 6 6 5 9 6 8 8 7 6
5 5 5 4 5 4 4 4 4 4 4 4 3 3 2 2 2 2 2 2 3 3 3 3 3 4 4 4 5 6 6 6 6 6 7 6 7 7 6 5 9 9 8 10
4 5 6 5 5 4 5 5 5 5 4 4 3 3 2 2 2 3 3 3 3 3 3 4 4 4 5 5 5 5 6 6 5 5 6 6 6 6 6 7 6 4 5 8
6 7 6 5 5 5 6 5 5 5 4 4 3 3 3 3 3 3 2 3 3 3 4 4 4 4 5 5 5 5 5 4 4 5 5 5 5 5 6 6 6 6 6 5
7 8 7 6 6 6 6 6 6 5 4 4 3 3 4 4 3 2 2 3 3 3 3 3 4 4 5 5 6 5 4 6 5 5 5 5 5 6 6 6 6 6 6 7
8 7 7 7 7 8 7 6 6 6 5 4 4 3 4 4 4 3 3 3 3 3 3 3 3 3 4 5 6 4 4 6 6 5 4 5 5 5 5 6 6 6 5 7
8 8 8 8 7 7 7 7 6 5 5 4 4 4 5 5 5 4 4 3 3 2 2 3 3 3 4 5 4 4 4 5 5 5 4 4 4 4 5 6 6 6 6 7
8 7 7 8 7 6 6 6 5 4 4 3 3 4 4 4 4 4 4 4 4 3 2 2 3 3 3 4 4 3 4 5 5 5 4 5 5 5 4 5 6 6 6 7
6 6 7 7 6 5 5 5 4 4 3 3 3 3 3 3 3 3 3 2 2 2 2 3 4 3 3 4 5 4 5 5 6 6 6 5 5 5 5 5 5 5 5 6
5 5 6 5 5 5 5 5 4 3 3 3 4 4 4 4 4 4 3 3 2 2 3 4 4 3 3 4 6 5 5 5 5 5 5 5 5 5 5 5 5 5 5 5
4 4 4 5 5 4 3 3 3 3 3 4 4 4 4 4 4 3 3 2 2 2 2 3 4 4 4 5 5 5 6 6 5 5 5 5 5 5 5 5 5 5 5 5
4 4 4 3 3 2 2 2 3 3 3 4 4 4 4 3 3 3 3 2 2 3 3 2 3 5 5 5 5 5 6 6 5 5 4 4 5 5 5 5 5 5 4 4
3 4 3 2 2 1 1 1 1 2 2 2 3 3 3 2 2 2 3 3 3 4 3 3 5 6 5 4 5 5 5 5 5 5 5 5 5 5 5 5 5 4 4 5
2 3 3 2 1 0 1 1 1 2 2 1 2 2 2 2 2 2 3 4 5 5 4 5 7 7 5 4 5 4 5 5 5 5 5 5 5 5 5 5 5 5 5 5
2 2 1 1 0 1 1 2 1 1 2 2 2 1 2 2 2 2 2 4 5 5 4 4 6 6 5 5 5 5 5 5 6 5 5 5 5 5 5 6 7 5 5 4
2 1 1 0 0 1 1 2 2 2 2 2 2 2 2 2 2 2 3 3 4 4 4 4 5 5 5 5 5 5 5 5 5 5 5 5 5 5 5 6 5 5 5 5
Wind_Direction
262 267 260 245 235 232 236 246 254 256 246 203 162 145 132 127 147 160 156 159 152 151 149 152 152 152 153 155 151 150 150 151 147 144 142 139 135 128 127 134 132 119 112 101
255 257 260 256 246 240 237 238 247 257 264 260 169 140 127 142 168 177 174 167 161 156 154 157 159 161 158 155 153 152 155 153 149 150 151 150 146 139 135 130 119 111 104 96
253 248 253 247 243 241 242 241 241 246 250 239 200 149 144 141 159 188 186 164 163 163 160 166 165 161 161 157 155 156 158 157 157 155 156 160 160 148 144 137 127 119 117 106
250 251 245 244 247 241 241 243 249 247 243 241 206 147 131 134 148 167 160 171 162 165 161 165 163 160 161 162 161 163 163 163 163 162 160 152 148 144 143 138 134 131 126 122
246 244 246 241 243 247 242 241 250 268 263 235 221 172 153 119 98 121 119 86 149 165 164 163 164 164 163 169 171 170 171 170 168 165 160 156 151 147 145 143 141 140 134 131
244 245 244 239 241 249 244 231 236 261 270 269 249 229 169 115 108 98 66 62 107 169 165 162 161 163 169 176 177 177 174 169 165 163 162 160 153 151 151 149 147 142 131 125
242 248 247 269 254 228 231 223 40 325 355 324 336 358 60 72 76 91 99 90 93 151 159 163 160 168 175 179 181 175 165 158 159 160 161 155 151 154 155 152 140 131 128 121
234 245 242 286 252 235 64 47 35 13 346 33 33 43 55 64 78 82 81 87 103 141 164 163 165 171 180 184 172 163 160 159 161 163 170 162 156 155 154 146 144 145 139 132
229 242 10 8 29 75 64 13 340 339 324 329 311 139 97 77 82 95 92 66 152 172 175 168 173 177 183 176 161 161 162 163 163 161 159 156 159 161 162 164 169 163 157 152
245 229 234 237 338 25 334 293 306 314 307 305 266 198 158 135 126 128 129 138 138 174 194 178 174 179 177 170 167 163 164 163 160 157 159 152 156 162 168 173 173 166 161 155
246 246 247 246 272 294 308 310 305 314 311 311 301 263 187 164 166 174 189 196 193 181 192 188 171 168 170 167 165 166 164 163 165 166 162 152 138 99 146 104 130 151 148 141
250 266 263 254 263 287 284 285 291 298 295 293 283 271 239 201 182 193 194 205 208 196 195 196 166 155 162 167 168 168 171 173 174 172 164 159 143 112 60 77 84 87 99 115
292 291 287 296 293 291 291 292 288 281 277 275 273 261 241 199 191 199 203 207 210 209 201 189 166 155 159 163 170 175 177 177 177 172 167 167 160 154 141 95 77 80 96 108
298 292 279 273 282 296 291 287 286 284 278 272 255 238 217 199 213 219 227 223 216 209 203 187 172 168 165 164 171 180 184 182 182 176 170 170 167 166 161 155 143 118 99 117
276 276 273 274 277 278 274 269 267 268 264 260 239 218 205 203 210 217 224 223 210 204 204 191 175 172 166 168 176 186 189 183 179 175 171 166 161 161 158 155 151 147 139 132
270 273 270 264 264 267 262 253 252 255 252 250 240 219 210 208 204 198 208 212 204 199 188 180 171 170 170 171 173 181 179 171 171 169 168 164 163 167 161 157 157 159 157 153
264 266 273 274 270 268 266 260 254 253 250 248 241 219 206 204 198 196 199 187 177 174 177 178 180 180 177 176 177 181 173 163 166 169 166 166 166 165 157 157 159 161 159 155
264 264 265 265 267 277 278 271 262 253 242 237 236 212 204 200 202 200 185 174 172 175 190 189 177 179 180 178 178 178 168 162 165 170 164 160 164 163 162 162 163 161 151 150
258 263 271 275 276 277 272 271 270 260 245 233 229 211 198 189 185 183 169 173 177 188 194 174 164 168 166 162 167 166 159 157 156 159 160 158 164 169 168 161 157 158 157 154
274 272 276 282 281 276 275 270 260 253 238 216 199 182 177 178 169 163 159 173 198 210 174 157 158 162 165 158 163 167 163 158 159 163 165 166 164 162 163 160 160 160 161 159
287 283 280 283 285 278 266 256 242 234 214 193 171 169 172 177 168 161 165 190 186 191 185 164 169 172 169 159 162 166 160 154 155 155 158 160 161 163 165 164 163 166 168 164
304 299 296 293 285 276 268 250 222 208 191 174 170 172 175 175 168 160 174 198 198 210 208 180 172 166 164 165 163 163 158 155 154 155 163 164 163 165 167 166 166 171 169 167
324 319 315 317 298 286 284 252 208 188 177 176 175 180 185 170 174 171 184 199 191 177 182 167 156 151 154 172 168 165 160 161 160 161 164 167 167 167 167 167 167 168 167 164
331 334 328 326 315 294 271 264 213 153 149 160 167 166 160 155 152 176 186 186 181 165 173 156 152 154 170 184 177 169 165 165 164 166 169 170 171 170 166 164 164 163 165 167
325 327 323 326 324 283 167 152 112 122 131 130 147 156 164 165 170 181 180 171 172 168 176 163 163 171 186 187 172 167 165 168 169 167 169 169 167 165 163 162 164 168 172 171
298 281 279 279 249 184 169 169 172 160 145 135 132 134 143 143 154 177 171 164 168 171 179 167 169 179 187 180 172 169 168 168 170 174 173 168 169 169 166 166 169 172 171 168
313 313 325 293 236 223 194 155 149 145 141 143 142 152 158 168 181 178 182 175 161 166 174 176 172 170 171 168 168 170 174 176 175 173 170 167 168 168 167 168 170 167 169 172